Weather History for Plant City, FL

Change the Weather History Date:

Wednesday, January 30, 2013

  Actual Average Record
Temperature  
Mean Temperature 76 °F -  
Max Temperature 86 °F 75 °F 86 °F (1975)
Min Temperature 66 °F 48 °F 30 °F (1955)
Cooling Degree Days 11    
Growing Degree Days 26 (Base 50)    
Moisture  
Dew Point 64 °F    
Average Humidity 70    
Maximum Humidity 100    
Minimum Humidity 40    
Precipitation  
Precipitation 0.00 in - - ()
Sea Level Pressure  
Sea Level Pressure 30.02 in    
Wind  
Wind Speed 10 mph (South)    
Max Wind Speed 20 mph    
Max Gust Speed 28 mph    
Visibility 10 miles    
Events      
Averages and records for this station are not official NWS values.
T = Trace of Precipitation, MM = Missing Value Source: NWS Daily Summary

Daily Weather History Graph

Daily Weather History Graph

Search for Another Location

Airport:

Trip Planner

Search our weather history database for the weather conditions in past years. The results will help you decide how hot, cold, wet, or windy it might be!

Date:

Astronomy

Jan. 30, 2013 Rise Set
Actual Time 7:16 AM EST 6:07 PM EST
Civil Twilight 6:52 AM EST 6:32 PM EST
Nautical Twilight 6:23 AM EST 7:00 PM EST
Astronomical Twilight 5:56 AM EST 7:28 PM EST
Moon 9:39 PM EST (1/30) 9:06 AM EST (1/30)
Length of Visible Light 11h 40m
Length of Day
10h 51m
Waning Gibbous, 88% of the Moon is Illuminated
Jan 30
Waning Gibbous
Feb 3
Last Quarter
Feb 10
New
Feb 17
First Quarter
Feb 25
Full

Hourly Weather History & Observations

Time (EST) Temp. Heat Index Dew Point Humidity Pressure Visibility Wind Dir Wind Speed Gust Speed Precip Events Conditions
12:15 AM 71.6 °F - 68.0 °F 88% 30.14 in 10.0 mi SE 5.8 mph - N/A   Scattered Clouds
12:35 AM 69.8 °F - 66.2 °F 88% 30.14 in 10.0 mi SE 6.9 mph - N/A   Scattered Clouds
12:55 AM 69.8 °F - 66.2 °F 88% 30.13 in 10.0 mi SE 8.1 mph - N/A   Clear
1:35 AM 69.8 °F - 64.4 °F 83% 30.12 in 10.0 mi SSE 8.1 mph - N/A   Clear
1:55 AM 69.8 °F - 64.4 °F 83% 30.13 in 10.0 mi SSE 5.8 mph - N/A   Clear
2:15 AM 69.8 °F - 64.4 °F 83% 30.12 in 10.0 mi SSE 4.6 mph - N/A   Clear
2:35 AM 69.8 °F - 64.4 °F 83% 30.12 in 10.0 mi SSE 6.9 mph - N/A   Clear
2:55 AM 68.0 °F - 64.4 °F 88% 30.11 in 10.0 mi SE 6.9 mph - N/A   Clear
3:15 AM 68.0 °F - 66.2 °F 94% 30.10 in 10.0 mi SSE 6.9 mph - N/A   Clear
3:35 AM 68.0 °F - 66.2 °F 94% 30.10 in 10.0 mi SSE 5.8 mph - N/A   Clear
3:55 AM 68.0 °F - 68.0 °F 100% 30.10 in 10.0 mi SSE 6.9 mph - N/A   Clear
4:15 AM 68.0 °F - 66.2 °F 94% 30.09 in 10.0 mi SSE 5.8 mph - N/A   Clear
4:35 AM 68.0 °F - 66.2 °F 94% 30.09 in 10.0 mi SSE 6.9 mph - N/A   Clear
4:55 AM 68.0 °F - 68.0 °F 100% 30.09 in 10.0 mi SSE 5.8 mph - N/A   Clear
5:15 AM 66.2 °F - - N/A% 30.08 in 10.0 mi SE 4.6 mph - N/A   Clear
5:35 AM 66.2 °F - - N/A% 30.07 in 10.0 mi SE 5.8 mph - N/A   Clear
5:55 AM 68.0 °F - - N/A% 30.08 in 10.0 mi SSE 9.2 mph - N/A   Clear
6:15 AM 68.0 °F - - N/A% 30.08 in 10.0 mi SE 8.1 mph - N/A   Clear
6:35 AM 66.2 °F - - N/A% 30.08 in 10.0 mi SSE 8.1 mph - N/A   Clear
6:55 AM 66.2 °F - - N/A% 30.07 in 10.0 mi SE 9.2 mph - N/A   Clear
7:15 AM 66.2 °F - - N/A% 30.08 in 10.0 mi SSE 6.9 mph - N/A   Clear
7:35 AM 68.0 °F - - N/A% 30.08 in 10.0 mi SSE 10.4 mph - N/A   Clear
7:55 AM 68.0 °F - - N/A% 30.08 in 10.0 mi SSE 8.1 mph - N/A   Clear
8:15 AM 68.0 °F - - N/A% 30.07 in 10.0 mi SSE 9.2 mph - N/A   Clear
8:35 AM 69.8 °F - 68.0 °F 94% 30.07 in 10.0 mi SSE 11.5 mph 17.3 mph N/A   Clear
8:55 AM 71.6 °F - 64.4 °F 78% 30.07 in 10.0 mi SSE 12.7 mph 19.6 mph N/A   Clear
9:15 AM 73.4 °F - 64.4 °F 73% 30.07 in 10.0 mi South 12.7 mph 17.3 mph N/A   Clear
9:35 AM 75.2 °F - 64.4 °F 69% 30.06 in 10.0 mi South 15.0 mph 19.6 mph N/A   Clear
9:55 AM 75.2 °F - 64.4 °F 69% 30.06 in 10.0 mi SSE 15.0 mph 19.6 mph N/A   Scattered Clouds
10:15 AM 77.0 °F - 64.4 °F 65% 30.05 in 10.0 mi South 15.0 mph 20.7 mph N/A   Scattered Clouds
10:35 AM 77.0 °F - 64.4 °F 65% 30.04 in 10.0 mi SSE 17.3 mph 25.3 mph N/A   Scattered Clouds
10:55 AM 78.8 °F - 64.4 °F 61% 30.04 in 10.0 mi SSE 13.8 mph 21.9 mph N/A   Scattered Clouds
11:15 AM 80.6 °F 81.8 °F 62.6 °F 54% 30.03 in 10.0 mi South 16.1 mph 23.0 mph N/A   Scattered Clouds
11:35 AM 80.6 °F 81.8 °F 62.6 °F 54% 30.03 in 10.0 mi South 12.7 mph 19.6 mph N/A   Clear
11:55 AM 80.6 °F 81.8 °F 62.6 °F 54% 30.02 in 10.0 mi South 13.8 mph 24.2 mph N/A   Scattered Clouds
12:15 PM 80.6 °F 81.8 °F 62.6 °F 54% 30.02 in 10.0 mi South 8.1 mph 18.4 mph N/A   Scattered Clouds
12:35 PM 82.4 °F 83.4 °F 62.6 °F 51% 30.02 in 10.0 mi SSW 16.1 mph 21.9 mph N/A   Mostly Cloudy
12:55 PM 82.4 °F 83.4 °F 62.6 °F 51% 30.00 in 10.0 mi South 13.8 mph 20.7 mph N/A   Mostly Cloudy
1:15 PM 84.2 °F 85.0 °F 62.6 °F 48% 29.99 in 10.0 mi South 13.8 mph 17.3 mph N/A   Scattered Clouds
1:35 PM 84.2 °F 84.4 °F 60.8 °F 45% 29.99 in 10.0 mi SSW 15.0 mph 23.0 mph N/A   Scattered Clouds
1:55 PM 84.2 °F 84.4 °F 60.8 °F 45% 29.99 in 10.0 mi South 11.5 mph 16.1 mph N/A   Mostly Cloudy
2:15 PM 86.0 °F 85.4 °F 59.0 °F 40% 29.98 in 10.0 mi SSW 16.1 mph 24.2 mph N/A   Scattered Clouds
2:35 PM 84.2 °F 84.4 °F 60.8 °F 45% 29.97 in 10.0 mi South 13.8 mph 21.9 mph N/A   Scattered Clouds
2:55 PM 84.2 °F 84.4 °F 60.8 °F 45% 29.97 in 7.0 mi South 15.0 mph 25.3 mph N/A   Scattered Clouds
3:15 PM 84.2 °F 84.4 °F 60.8 °F 45% 29.98 in 10.0 mi SSW 19.6 mph 27.6 mph N/A   Scattered Clouds
3:35 PM 84.2 °F 84.4 °F 60.8 °F 45% 29.96 in 10.0 mi South 17.3 mph 24.2 mph N/A   Scattered Clouds
3:55 PM 84.2 °F 84.4 °F 60.8 °F 45% 29.97 in 10.0 mi South 17.3 mph 24.2 mph N/A   Clear
4:15 PM 82.4 °F 82.9 °F 60.8 °F 48% 29.96 in 10.0 mi SSW 12.7 mph 23.0 mph N/A   Clear
4:35 PM 82.4 °F 82.9 °F 60.8 °F 48% 29.96 in 10.0 mi South 16.1 mph 21.9 mph N/A   Clear
4:55 PM 82.4 °F 82.9 °F 60.8 °F 48% 29.96 in 10.0 mi South 18.4 mph 23.0 mph N/A   Clear
5:15 PM 80.6 °F 81.5 °F 60.8 °F 51% 29.96 in 10.0 mi South 17.3 mph 23.0 mph N/A   Clear
5:35 PM 78.8 °F - 60.8 °F 54% 29.96 in 10.0 mi SSW 10.4 mph 19.6 mph N/A   Clear
5:55 PM 77.0 °F - 60.8 °F 57% 29.96 in 10.0 mi SSW 9.2 mph - N/A   Clear
6:15 PM 77.0 °F - 62.6 °F 61% 29.95 in 10.0 mi South 12.7 mph 18.4 mph N/A   Clear
6:35 PM 75.2 °F - 62.6 °F 65% 29.95 in 10.0 mi South 15.0 mph 21.9 mph N/A   Clear
6:55 PM 75.2 °F - 62.6 °F 65% 29.96 in 10.0 mi South 10.4 mph 16.1 mph N/A   Clear
7:15 PM 75.2 °F - 64.4 °F 69% 29.96 in 10.0 mi South 16.1 mph 19.6 mph N/A   Clear
7:35 PM 75.2 °F - 64.4 °F 69% 29.95 in 10.0 mi South 10.4 mph 18.4 mph N/A   Clear
7:55 PM 73.4 °F - 64.4 °F 73% 29.96 in 10.0 mi South 9.2 mph 17.3 mph N/A   Clear
8:15 PM 73.4 °F - 64.4 °F 73% 29.96 in 10.0 mi South 12.7 mph 18.4 mph N/A   Clear
8:35 PM 73.4 °F - 66.2 °F 78% 29.96 in 10.0 mi South 9.2 mph 16.1 mph N/A   Clear
8:55 PM 71.6 °F - 66.2 °F 83% 29.96 in 10.0 mi South 10.4 mph 16.1 mph N/A   Clear
9:15 PM 71.6 °F - 66.2 °F 83% 29.96 in 10.0 mi South 10.4 mph 16.1 mph N/A   Clear
9:35 PM 71.6 °F - 66.2 °F 83% 29.96 in 10.0 mi South 11.5 mph 18.4 mph N/A   Clear
9:55 PM 71.6 °F - 66.2 °F 83% 29.95 in 10.0 mi South 10.4 mph - N/A   Clear
10:15 PM 71.6 °F - 66.2 °F 83% 29.96 in 10.0 mi South 11.5 mph 19.6 mph N/A   Clear
10:35 PM 71.6 °F - 66.2 °F 83% 29.96 in 10.0 mi South 9.2 mph 16.1 mph N/A   Clear
10:55 PM 71.6 °F - 66.2 °F 83% 29.96 in 10.0 mi SSW 9.2 mph - N/A   Clear
11:15 PM 71.6 °F - 66.2 °F 83% 29.96 in 10.0 mi South 11.5 mph - N/A   Clear
11:35 PM 71.6 °F - 66.2 °F 83% 29.96 in 10.0 mi South 12.7 mph 17.3 mph N/A   Clear
11:55 PM 71.6 °F - 66.2 °F 83% 29.97 in 10.0 mi South 12.7 mph 19.6 mph N/A   Mostly Cloudy